Location: Olmeneta
(45.2333°N, 10.0167°E)
Time: 16:46:19
(UTC+00:00)

Cosmos 44 Rocket - Pass Details

Date: 03 March 2021
Orbit: 636 x 754 km, 65.1° (Epoch: 11 April)

Event Time Altitude Azimuth Distance (km) Brightness Sun altitude
Rises 18:20:51 0° 322° (NW) 3,211 7.4 -13.3°
Reaches altitude 10° 18:23:16 10° 319° (NW) 2,285 6.6 -13.7°
Maximum altitude 18:28:26 62° 240° (WSW) 847 3.9 -14.6°
Drops below altitude 10° 18:33:32 10° 160° (SSE) 2,250 5.7 -15.5°
Enters shadow 18:35:28 - 158° (SSE) 2,987 6.3 -15.8°
